Weather History for Cambridge, MD

Change the Weather History Date:

Friday, June 21, 2013

  Actual Average (KESN) Record (KESN)
Temperature  
Mean Temperature 68 °F -  
Max Temperature 80 °F 84 °F 98 °F (2012)
Min Temperature 55 °F 64 °F 49 °F (1968)
Cooling Degree Days 2    
Growing Degree Days 18 (Base 50)    
Moisture  
Dew Point 58 °F    
Average Humidity 71    
Maximum Humidity 94    
Minimum Humidity 45    
Precipitation  
Precipitation 0.00 in - - ()
Sea Level Pressure  
Sea Level Pressure 30.28 in    
Wind  
Wind Speed 1 mph (ESE)    
Max Wind Speed 10 mph    
Max Gust Speed -    
Visibility 10 miles    
Events      
Averages and records for this station are not official NWS values.
T = Trace of Precipitation, MM = Missing Value Source: NWS Daily Summary

Daily Weather History Graph

Daily Weather History Graph

Search for Another Location

Airport:

Trip Planner

Search our weather history database for the weather conditions in past years. The results will help you decide how hot, cold, wet, or windy it might be!

Date:

Astronomy

Jun. 21, 2013 Rise Set
Actual Time 5:40 AM EDT 8:31 PM EDT
Civil Twilight 5:08 AM EDT 9:03 PM EDT
Nautical Twilight 4:28 AM EDT 9:43 PM EDT
Astronomical Twilight 3:42 AM EDT 10:29 PM EDT
Moon 6:40 PM EDT (6/21) 3:52 AM EDT (6/21)
Length of Visible Light 15h 55m
Length of Day
14h 51m
Waxing Gibbous, 95% of the Moon is Illuminated
Jun 21
Waxing Gibbous
Jun 23
Full
Jun 30
Last Quarter
Jul 8
New
Jul 15
First Quarter

Hourly Weather History & Observations

Time (EDT) Temp. Heat Index Dew Point Humidity Pressure Visibility Wind Dir Wind Speed Gust Speed Precip Events Conditions
12:12 AM 59.0 °F - 53.6 °F 82% 30.28 in 10.0 mi Calm Calm - N/A   Clear
12:32 AM 59.0 °F - 51.8 °F 77% 30.28 in 10.0 mi Calm Calm - N/A   Clear
12:52 AM 59.0 °F - 53.6 °F 82% 30.28 in 10.0 mi Calm Calm - N/A   Clear
1:12 AM 59.0 °F - 53.6 °F 82% 30.28 in 10.0 mi Calm Calm - N/A   Clear
1:33 AM 59.0 °F - 53.6 °F 82% 30.29 in 10.0 mi Calm Calm - N/A   Clear
1:53 AM 55.4 °F - 53.6 °F 94% 30.29 in 10.0 mi Calm Calm - N/A   Clear
2:13 AM 55.4 °F - 53.6 °F 94% 30.29 in 10.0 mi Calm Calm - N/A   Clear
2:33 AM 55.4 °F - 53.6 °F 94% 30.28 in 10.0 mi Calm Calm - N/A   Clear
2:53 AM 55.4 °F - 51.8 °F 88% 30.29 in 10.0 mi NNW 3.5 mph - N/A   Clear
3:13 AM 55.4 °F - 51.8 °F 88% 30.29 in 10.0 mi Calm Calm - N/A   Clear
3:33 AM 55.4 °F - 51.8 °F 88% 30.29 in 10.0 mi Calm Calm - N/A   Clear
3:53 AM 55.4 °F - 51.8 °F 88% 30.28 in 10.0 mi Calm Calm - N/A   Clear
4:13 AM 55.4 °F - 53.6 °F 94% 30.28 in 10.0 mi Calm Calm - N/A   Clear
4:33 AM 55.4 °F - 53.6 °F 94% 30.27 in 10.0 mi Calm Calm - N/A   Clear
4:53 AM 55.4 °F - 53.6 °F 94% 30.27 in 10.0 mi Calm Calm - N/A   Clear
5:13 AM 55.4 °F - 53.6 °F 94% 30.28 in 10.0 mi Calm Calm - N/A   Clear
5:33 AM 55.4 °F - 53.6 °F 94% 30.28 in 10.0 mi Calm Calm - N/A   Clear
5:53 AM 55.4 °F - 53.6 °F 94% 30.28 in 10.0 mi Calm Calm - N/A   Clear
6:13 AM 55.4 °F - 53.6 °F 94% 30.28 in 10.0 mi Calm Calm - N/A   Clear
6:33 AM 55.4 °F - 53.6 °F 94% 30.28 in 10.0 mi SSE 3.5 mph - N/A   Clear
6:53 AM 59.0 °F - 55.4 °F 88% 30.28 in 10.0 mi Calm Calm - N/A   Clear
7:13 AM 60.8 °F - 57.2 °F 88% 30.29 in 10.0 mi Calm Calm - N/A   Clear
7:33 AM 62.6 °F - 57.2 °F 82% 30.29 in 10.0 mi Calm Calm - N/A   Clear
7:53 AM 62.6 °F - 59.0 °F 88% 30.29 in 10.0 mi Calm Calm - N/A   Clear
8:13 AM 66.2 °F - 59.0 °F 78% 30.30 in 7.0 mi NNE 3.5 mph - N/A   Clear
8:33 AM 68.0 °F - 60.8 °F 78% 30.30 in 10.0 mi Calm Calm - N/A   Clear
8:53 AM 69.8 °F - 60.8 °F 73% 30.31 in 10.0 mi ENE 3.5 mph - N/A   Clear
9:13 AM 69.8 °F - 60.8 °F 73% 30.30 in 10.0 mi Calm Calm - N/A   Clear
9:33 AM 69.8 °F - 59.0 °F 68% 30.29 in 10.0 mi Calm Calm - N/A   Clear
9:53 AM 71.6 °F - 55.4 °F 57% 30.30 in 10.0 mi Calm Calm - N/A   Clear
10:14 AM 73.4 °F - 57.2 °F 57% 30.29 in 10.0 mi Calm Calm - N/A   Clear
10:34 AM 73.4 °F - 59.0 °F 61% 30.29 in 10.0 mi NNE 4.6 mph - N/A   Clear
10:54 AM 75.2 °F - 59.0 °F 57% 30.29 in 10.0 mi ENE 5.8 mph - N/A   Clear
11:14 AM 75.2 °F - 60.8 °F 61% 30.29 in 10.0 mi North 3.5 mph - N/A   Clear
11:34 AM 75.2 °F - 59.0 °F 57% 30.29 in 10.0 mi NW 4.6 mph - N/A   Clear
11:54 AM 75.2 °F - 59.0 °F 57% 30.29 in 10.0 mi Calm Calm - N/A   Clear
12:14 PM 75.2 °F - 57.2 °F 53% 30.30 in 10.0 mi North 4.6 mph - N/A   Scattered Clouds
12:34 PM 77.0 °F - 60.8 °F 57% 30.30 in 10.0 mi Calm Calm - N/A   Scattered Clouds
12:54 PM 75.2 °F - 59.0 °F 57% 30.30 in 10.0 mi Calm Calm - N/A   Mostly Cloudy
1:14 PM 78.8 °F - 60.8 °F 54% 30.29 in 10.0 mi SW 4.6 mph - N/A   Mostly Cloudy
1:34 PM 78.8 °F - 60.8 °F 54% 30.28 in 7.0 mi South 4.6 mph - N/A   Scattered Clouds
1:54 PM 78.8 °F - 60.8 °F 54% 30.29 in 10.0 mi West 3.5 mph - N/A   Clear
2:14 PM 80.6 °F 81.5 °F 60.8 °F 51% 30.28 in 10.0 mi SE 4.6 mph - N/A   Clear
2:34 PM 78.8 °F - 59.0 °F 51% 30.28 in 10.0 mi West 4.6 mph - N/A   Clear
2:54 PM 80.6 °F 81.1 °F 59.0 °F 48% 30.27 in 10.0 mi SW 3.5 mph - N/A   Mostly Cloudy
3:14 PM 80.6 °F 81.1 °F 59.0 °F 48% 30.27 in 10.0 mi Calm Calm - N/A   Mostly Cloudy
3:34 PM 80.6 °F 81.1 °F 59.0 °F 48% 30.27 in 10.0 mi East 3.5 mph - N/A   Mostly Cloudy
3:54 PM 80.6 °F 81.1 °F 59.0 °F 48% 30.26 in 10.0 mi Calm Calm - N/A   Mostly Cloudy
4:14 PM 80.6 °F 81.1 °F 59.0 °F 48% 30.26 in 10.0 mi NNE 3.5 mph - N/A   Mostly Cloudy
4:34 PM 80.6 °F 80.8 °F 57.2 °F 45% 30.26 in 10.0 mi Calm Calm - N/A   Mostly Cloudy
4:54 PM 78.8 °F - 59.0 °F 51% 30.27 in 10.0 mi NNW 4.6 mph - N/A   Mostly Cloudy
5:14 PM 80.6 °F 81.5 °F 60.8 °F 51% 30.26 in 10.0 mi North 3.5 mph - N/A   Scattered Clouds
5:34 PM 80.6 °F 81.5 °F 60.8 °F 51% 30.25 in 10.0 mi North 3.5 mph - N/A   Clear
5:54 PM 80.6 °F 81.5 °F 60.8 °F 51% 30.24 in 10.0 mi NE 3.5 mph - N/A   Scattered Clouds
6:14 PM 80.6 °F 81.5 °F 60.8 °F 51% 30.24 in 10.0 mi Calm Calm - N/A   Mostly Cloudy
6:35 PM 80.6 °F 81.5 °F 60.8 °F 51% 30.25 in 10.0 mi Calm Calm - N/A   Scattered Clouds
6:55 PM 80.6 °F 81.8 °F 62.6 °F 54% 30.25 in 10.0 mi South 5.8 mph - N/A   Mostly Cloudy
7:15 PM 78.8 °F - 62.6 °F 57% 30.25 in 10.0 mi South 3.5 mph - N/A   Mostly Cloudy
7:35 PM 78.8 °F - 64.4 °F 61% 30.25 in 10.0 mi South 5.8 mph - N/A   Clear
7:55 PM 77.0 °F - 64.4 °F 65% 30.25 in 10.0 mi SSE 8.1 mph - N/A   Scattered Clouds
8:15 PM 75.2 °F - 64.4 °F 69% 30.25 in 10.0 mi SSE 4.6 mph - N/A   Scattered Clouds
8:35 PM 75.2 °F - 62.6 °F 65% 30.26 in 10.0 mi ESE 10.4 mph - N/A   Mostly Cloudy
8:55 PM 73.4 °F - 60.8 °F 65% 30.26 in 10.0 mi SE 8.1 mph - N/A   Mostly Cloudy
9:15 PM 69.8 °F - 60.8 °F 73% 30.26 in 10.0 mi SE 5.8 mph - N/A   Scattered Clouds
9:35 PM 69.8 °F - 62.6 °F 78% 30.26 in 10.0 mi SE 5.8 mph - N/A   Clear
9:55 PM 69.8 °F - 62.6 °F 78% 30.26 in 10.0 mi ESE 4.6 mph - N/A   Clear
10:15 PM 68.0 °F - 60.8 °F 78% 30.27 in 10.0 mi ESE 5.8 mph - N/A   Clear
10:35 PM 68.0 °F - 60.8 °F 78% 30.27 in 10.0 mi SE 4.6 mph - N/A   Clear
10:55 PM 68.0 °F - 60.8 °F 78% 30.27 in 10.0 mi SE 5.8 mph - N/A   Clear
11:15 PM 64.4 °F - 60.8 °F 88% 30.26 in 10.0 mi SE 3.5 mph - N/A   Clear
11:35 PM 64.4 °F - 60.8 °F 88% 30.26 in 10.0 mi SE 3.5 mph - N/A   Clear
11:55 PM 64.4 °F - 59.0 °F 83% 30.26 in 10.0 mi Calm Calm - N/A   Clear